Погода в Монетном

Россия / Свердловская область     57°02′56″N   60°52′49″E
темп.,
°C
ветер,
м/с
пор.,
м/с
влажн.,
%
обл.,
%
осадки,
мм/ч
давл.,
гПа
погр.,
м
24 сентября, пт
пт2423:00+4ю24737 0.0 103070
02:00+2ю25785 0.0 102993
05:00+2ю24808 0.0 102979
08:00+3ю277363 0.0 1028173
11:00+9ююз3451100 0.0 1027410
14:00+13ю2344100 0.0 1026714
17:00+12ю2350100 0.0 1025175
20:00+7ююв2263100 0.0 102610
25 сентября, сб
сб2523:00+5юв226578 0.0 102510
02:00+5ююв226511 0.0 102517
05:00+4ююв266629 0.0 102599
08:00+5юв286213 0.0 1023188
11:00+11юв473950 0.0 1022551
14:00+15юв463198 0.0 1021992
17:00+13юв4838100 0.0 1020919
20:00+9вюв3115299 0.0 1021254
26 сентября, вс
вс2623:00+8вюв3125468 0.0 1021322
02:00+7вюв41261100 0.0 1021355
05:00+6вюв41169100 0.0 1021413
08:00+5вюв51277100 0.0 1022423
11:00+8вюв61060100 0.0 1022729
14:00+9юв5957100 0.0 10221195
17:00+8вюв51051100 0.2 10221106
20:00+7в61144100 0.0 1023995
27 сентября, пн
пн2723:00+5вюв51147100 0.0 1023900
02:00+4в51154100 0.0 1023802
05:00+2в61267100 0.0 1023739
08:00+1в61472100 0.0 1024688
11:00+4в7125464 0.0 1024947
14:00+7в710455 0.0 10241407
17:00+7всв6105039 0.0 10241511
20:00+3всв511605 0.0 1026880
28 сентября, вт
вт2823:00+2всв4107385 0.0 1026656
02:00+2всв4868100 0.0 10261217
05:00+2св4867100 0.0 10261209
08:00+2св4871100 0.0 1026948
11:00+3св5861100 0.0 10261404
14:00+4ссв5755100 0.0 10251502
17:00+4ссв4761100 0.1 10251252
20:00+1с497487 0.0 1026473